FW2474 Weather Reports


Display with metric or nautical units.
time (UTC)temp
F
wind
direction
speed
MPH
gust
MPH
rain 1hr
in
rain 24hr
in
rain mn
in
humidity
%
barometer
mb
20200712053904 63 230 1.0 6.0 0.00 0.00 0.00 76 1017.7
20200712053405 63 279 2.0 5.0 0.00 0.00 0.00 76 1017.7
20200712052905 63 292 0.0 5.0 0.00 0.00 0.00 76 1017.7
20200712052405 62 300 2.0 5.0 0.00 0.00 0.00 76 1017.8
20200712051905 62 241 2.0 3.0 0.00 0.00 0.00 76 1017.8
20200712051405 62 281 2.0 5.0 0.00 0.00 0.00 76 1017.7
20200712050904 62 158 2.0 5.0 0.00 0.00 0.00 76 1017.7
20200712050405 62 233 3.0 3.0 0.00 0.00 0.00 76 1017.7
20200712045905 62 276 2.0 6.0 0.00 0.00 0.00 75 1017.7
20200712045404 62 322 3.0 6.0 0.00 0.00 0.00 75 1017.7
20200712044905 62 261 2.0 5.0 0.00 0.00 0.00 75 1017.6
20200712044405 62 234 2.0 5.0 0.00 0.00 0.00 74 1017.6
20200712043905 63 318 0.0 5.0 0.00 0.00 0.00 73 1017.6
20200712043405 63 295 0.0 6.0 0.00 0.00 0.00 73 1017.5
20200712042905 63 283 3.0 6.0 0.00 0.00 0.00 73 1017.5
20200712042404 63 197 3.0 5.0 0.00 0.00 0.00 72 1017.5
20200712041904 63 246 3.0 6.0 0.00 0.00 0.00 71 1017.5
20200712041405 64 236 3.0 7.0 0.00 0.00 0.00 71 1017.3
20200712040904 64 214 2.0 8.0 0.00 0.00 0.00 71 1017.3
20200712040404 64 281 4.0 8.0 0.00 0.00 0.00 70 1017.3
20200712035905 64 258 3.0 6.0 0.00 0.00 0.00 70 1017.4
20200712035405 65 252 2.0 6.0 0.00 0.00 0.00 70 1017.4
20200712034905 65 2 3.0 6.0 0.00 0.00 0.00 70 1017.4
20200712034405 65 253 3.0 6.0 0.00 0.00 0.00 69 1017.4
20200712033905 65 242 3.0 6.0 0.00 0.00 0.00 69 1017.3
20200712033405 65 319 3.0 6.0 0.00 0.00 0.00 69 1017.3
20200712032904 65 315 4.0 6.0 0.00 0.00 0.00 68 1017.3
20200712032404 65 285 3.0 6.0 0.00 0.00 0.00 68 1017.2
20200712031904 65 292 4.0 6.0 0.00 0.00 0.00 68 1017.2
20200712031404 65 338 3.0 6.0 0.00 0.00 0.00 68 1017.1
20200712030904 65 268 5.0 8.0 0.00 0.00 0.00 68 1017.1
20200712030405 65 292 5.0 8.0 0.00 0.00 0.00 67 1017.1
20200712025905 66 289 5.0 7.0 0.00 0.00 0.00 67 1017.1
20200712025405 66 291 4.0 9.0 0.00 0.00 0.00 67 1017.1
20200712024904 66 286 7.0 13.0 0.00 0.00 0.00 67 1017.0
20200712024404 66 224 6.0 13.0 0.00 0.00 0.00 66 1017.0
20200712023905 67 239 5.0 13.0 0.00 0.00 0.00 65 1017.0
20200712023405 67 270 3.0 9.0 0.00 0.00 0.00 65 1017.0
20200712022905 67 303 7.0 9.0 0.00 0.00 0.00 64 1017.0
20200712022404 67 298 5.0 10.0 0.00 0.00 0.00 64 1016.7
20200712021905 67 247 6.0 10.0 0.00 0.00 0.00 64 1016.7
20200712021405 68 311 5.0 9.0 0.00 0.00 0.00 63 1016.6
20200712020904 68 258 4.0 9.0 0.00 0.00 0.00 63 1016.6
20200712020405 68 330 5.0 9.0 0.00 0.00 0.00 63 1016.6
20200712015904 68 202 6.0 10.0 0.00 0.00 0.00 63 1016.5
20200712015404 68 263 7.0 10.0 0.00 0.00 0.00 63 1016.5
20200712014905 68 227 7.0 10.0 0.00 0.00 0.00 63 1016.3
20200712014405 68 283 7.0 13.0 0.00 0.00 0.00 62 1016.3
20200712013905 69 257 7.0 13.0 0.00 0.00 0.00 62 1016.3
20200712013405 69 180 6.0 13.0 0.00 0.00 0.00 62 1016.3
20200712012908 69 301 9.0 14.0 0.00 0.00 0.00 62 1016.3
20200712012404 69 267 7.0 15.0 0.00 0.00 0.00 61 1016.3
20200712011904 69 278 6.0 15.0 0.00 0.00 0.00 61 1016.3
20200712011404 70 311 7.0 15.0 0.00 0.00 0.00 60 1016.4
20200712010904 71 256 7.0 13.0 0.00 0.00 0.00 59 1016.4
20200712010404 71 297 7.0 14.0 0.00 0.00 0.00 59 1016.4
20200712005905 72 303 9.0 14.0 0.00 0.00 0.00 58 1016.4
20200712005405 72 292 9.0 16.0 0.00 0.00 0.00 57 1016.4
20200712004904 72 281 8.0 16.0 0.00 0.00 0.00 57 1016.3
20200712004404 72 356 9.0 14.0 0.00 0.00 0.00 57 1016.3
20200712003904 73 215 6.0 10.0 0.00 0.00 0.00 58 1016.3
20200712003404 73 287 7.0 12.0 0.00 0.00 0.00 57 1016.3
20200712002905 73 270 9.0 12.0 0.00 0.00 0.00 58 1016.3
20200712002405 73 336 7.0 13.0 0.00 0.00 0.00 58 1016.3
20200712001904 73 223 8.0 13.0 0.00 0.00 0.00 57 1016.3
20200712001404 74 149 7.0 10.0 0.00 0.00 0.00 56 1016.2
20200712000904 75 274 7.0 12.0 0.00 0.00 0.00 55 1016.2
20200712000404 75 270 6.0 13.0 0.00 0.00 0.00 54 1016.2
20200711235904 76 271 8.0 14.0 0.00 0.00 0.00 53 1016.0
20200711235404 76 270 5.0 14.0 0.00 0.00 0.00 53 1016.0
20200711234905 76 292 6.0 10.0 0.00 0.00 0.00 53 1015.8
20200711234405 78 325 6.0 14.0 0.00 0.00 0.00 51 1015.8
20200711233904 78 250 6.0 14.0 0.00 0.00 0.00 51 1015.8
20200711233404 78 267 7.0 10.0 0.00 0.00 0.00 52 1015.8
20200711232904 77 350 6.0 12.0 0.00 0.00 0.00 52 1015.8
20200711232404 77 253 6.0 12.0 0.00 0.00 0.00 51 1015.7
20200711231904 79 312 8.0 14.0 0.00 0.00 0.00 51 1015.7
20200711231404 78 284 6.0 14.0 0.00 0.00 0.00 51 1015.6
20200711230904 79 310 7.0 14.0 0.00 0.00 0.00 50 1015.6
20200711230405 80 288 7.0 12.0 0.00 0.00 0.00 49 1015.6
20200711225904 80 225 5.0 9.0 0.00 0.00 0.00 49 1015.5
20200711225405 81 180 3.0 5.0 0.00 0.00 0.00 46 1015.5
20200711224905 79 161 1.0 10.0 0.00 0.00 0.00 51 1015.4
20200711224404 80 330 3.0 10.0 0.00 0.00 0.00 49 1015.4
20200711223904 81 200 3.0 7.0 0.00 0.00 0.00 48 1015.4
20200711223404 79 47 2.0 10.0 0.00 0.00 0.00 50 1015.4
20200711222904 80 225 5.0 10.0 0.00 0.00 0.00 49 1015.4
20200711222404 79 257 3.0 8.0 0.00 0.00 0.00 49 1015.5
20200711221905 80 236 4.0 8.0 0.00 0.00 0.00 48 1015.5
20200711221405 81 167 3.0 6.0 0.00 0.00 0.00 47 1015.5
20200711220904 80 259 4.0 6.0 0.00 0.00 0.00 48 1015.5
20200711220405 80 166 3.0 8.0 0.00 0.00 0.00 49 1015.5
20200711215905 79 150 3.0 8.0 0.00 0.00 0.00 50 1015.5
20200711215405 80 260 5.0 8.0 0.00 0.00 0.00 49 1015.5
20200711214905 80 269 5.0 7.0 0.00 0.00 0.00 49 1015.3
20200711214405 80 215 4.0 7.0 0.00 0.00 0.00 50 1015.3
20200711213905 80 187 3.0 7.0 0.00 0.00 0.00 51 1015.4
20200711213405 80 185 3.0 8.0 0.00 0.00 0.00 52 1015.5
20200711212905 79 251 5.0 9.0 0.00 0.00 0.00 51 1015.5
20200711212405 79 132 3.0 10.0 0.00 0.00 0.00 51 1015.4
20200711211904 80 156 4.0 10.0 0.00 0.00 0.00 51 1015.4
20200711211404 80 330 4.0 10.0 0.00 0.00 0.00 50 1015.6
20200711210905 80 214 3.0 7.0 0.00 0.00 0.00 51 1015.6
20200711210405 79 247 3.0 7.0 0.00 0.00 0.00 52 1015.6
20200711205905 80 165 2.0 7.0 0.00 0.00 0.00 52 1015.7
20200711205405 80 226 3.0 7.0 0.00 0.00 0.00 52 1015.7
20200711204905 79 195 5.0 8.0 0.00 0.00 0.00 52 1015.6
20200711204405 78 165 3.0 8.0 0.00 0.00 0.00 53 1015.6
20200711203905 80 244 3.0 8.0 0.00 0.00 0.00 51 1015.6
20200711203405 80 171 4.0 6.0 0.00 0.00 0.00 52 1015.6
20200711202905 78 181 2.0 7.0 0.00 0.00 0.00 53 1015.6
20200711202405 78 262 4.0 7.0 0.00 0.00 0.00 53 1015.6
20200711201905 80 248 6.0 7.0 0.00 0.00 0.00 51 1015.6
20200711200905 79 308 2.0 7.0 0.00 0.00 0.00 54 1015.7
20200711200406 79 103 4.0 7.0 0.00 0.00 0.00 54 1015.7
20200711195911 78 236 3.0 8.0 0.00 0.00 0.00 53 1015.7
20200711195405 79 189 5.0 8.0 0.00 0.00 0.00 53 1015.7
20200711194905 78 158 4.0 7.0 0.00 0.00 0.00 53 1015.7
20200711194405 78 249 4.0 6.0 0.00 0.00 0.00 55 1015.7
20200711193904 78 202 5.0 6.0 0.00 0.00 0.00 54 1015.7
20200711193405 78 313 4.0 9.0 0.00 0.00 0.00 54 1015.8
20200711192904 78 253 6.0 9.0 0.00 0.00 0.00 54 1015.8
20200711192404 77 272 4.0 7.0 0.00 0.00 0.00 54 1015.8
20200711191905 77 270 4.0 6.0 0.00 0.00 0.00 55 1015.8
20200711191405 76 8 3.0 9.0 0.00 0.00 0.00 56 1015.8
20200711190905 75 217 2.0 9.0 0.00 0.00 0.00 56 1015.8
20200711190404 76 267 5.0 9.0 0.00 0.00 0.00 55 1015.8
20200711185904 76 292 3.0 8.0 0.00 0.00 0.00 56 1015.7
20200711185404 76 178 3.0 9.0 0.00 0.00 0.00 57 1015.7
20200711184905 75 180 5.0 9.0 0.00 0.00 0.00 58 1015.9
20200711184405 75 251 3.0 9.0 0.00 0.00 0.00 59 1015.9
20200711183904 75 188 5.0 8.0 0.00 0.00 0.00 59 1016.0
20200711183404 76 236 4.0 7.0 0.00 0.00 0.00 60 1016.0
20200711182905 75 226 2.0 9.0 0.00 0.00 0.00 61 1016.0
20200711182405 74 156 3.0 9.0 0.00 0.00 0.00 62 1016.1
20200711181905 74 241 3.0 7.0 0.00 0.00 0.00 62 1016.1
20200711181406 74 286 5.0 6.0 0.00 0.00 0.00 61 1016.0
20200711180905 73 252 2.0 9.0 0.00 0.00 0.00 63 1016.0
20200711180405 73 151 2.0 9.0 0.00 0.00 0.00 64 1016.0
20200711175904 73 233 3.0 6.0 0.00 0.00 0.00 61 1016.1
20200711175404 74 194 2.0 6.0 0.00 0.00 0.00 61 1016.1
20200711174905 73 241 5.0 6.0 0.00 0.00 0.00 61 1016.0
20200711174404 73 90 3.0 6.0 0.00 0.00 0.00 63 1016.0
20200711173905 72 252 3.0 6.0 0.00 0.00 0.00 63 1016.0
20200711173405 72 274 3.0 6.0 0.00 0.00 0.00 64 1016.1
20200711172904 71 82 1.0 6.0 0.00 0.00 0.00 65 1016.1
20200711172405 72 292 3.0 6.0 0.00 0.00 0.00 64 1016.0
20200711171905 71 224 3.0 6.0 0.00 0.00 0.00 66 1016.0
20200711171404 71 187 3.0 6.0 0.00 0.00 0.00 65 1015.9
20200711170905 71 213 1.0 6.0 0.00 0.00 0.00 65 1015.9
20200711170405 71 235 3.0 6.0 0.00 0.00 0.00 66 1015.9
20200711165905 70 212 3.0 6.0 0.00 0.00 0.00 67 1016.0
20200711165405 70 194 3.0 6.0 0.00 0.00 0.00 67 1016.0
20200711164904 70 273 2.0 6.0 0.00 0.00 0.00 66 1016.0
20200711164404 70 229 3.0 6.0 0.00 0.00 0.00 67 1016.0
20200711163904 70 230 3.0 7.0 0.00 0.00 0.00 67 1016.0
20200711163405 69 145 3.0 7.0 0.00 0.00 0.00 67 1016.0
20200711162904 69 219 3.0 6.0 0.00 0.00 0.00 68 1016.0
20200711162404 68 244 2.0 5.0 0.00 0.00 0.00 68 1016.0
20200711161906 67 228 5.0 6.0 0.00 0.00 0.00 69 1016.0
20200711161405 67 251 3.0 6.0 0.00 0.00 0.00 71 1016.0
20200711160904 67 225 1.0 6.0 0.00 0.00 0.00 71 1016.0
20200711160405 67 171 2.0 6.0 0.00 0.00 0.00 71 1016.0
20200711155904 67 259 1.0 6.0 0.00 0.00 0.00 72 1015.9
20200711155404 66 240 2.0 6.0 0.00 0.00 0.00 72 1015.9
20200711154904 66 239 3.0 6.0 0.00 0.00 0.00 72 1016.0
20200711154405 65 218 2.0 5.0 0.00 0.00 0.00 73 1016.0
20200711153905 65 266 3.0 6.0 0.00 0.00 0.00 74 1016.0
20200711153404 65 109 2.0 6.0 0.00 0.00 0.00 74 1016.0
20200711152905 65 217 3.0 5.0 0.00 0.00 0.00 74 1016.0
20200711152405 65 158 1.0 5.0 0.00 0.00 0.00 74 1016.0
20200711151904 64 155 3.0 6.0 0.00 0.00 0.00 75 1016.0
20200711151404 64 261 2.0 6.0 0.00 0.00 0.00 76 1016.0
20200711150905 63 192 2.0 6.0 0.00 0.00 0.00 75 1016.0
20200711150405 63 22 2.0 6.0 0.00 0.00 0.00 76 1016.0
20200711145905 63 135 2.0 6.0 0.00 0.00 0.00 76 1015.9
20200711145405 63 231 2.0 6.0 0.00 0.00 0.00 76 1015.9
20200711144905 62 179 1.0 5.0 0.00 0.00 0.00 77 1015.8
20200711144405 63 211 2.0 5.0 0.00 0.00 0.00 76 1015.8
20200711143905 62 171 1.0 3.0 0.00 0.00 0.00 77 1015.8
20200711143405 62 237 1.0 3.0 0.00 0.00 0.00 77 1015.8
20200711142905 62 183 3.0 3.0 0.00 0.00 0.00 76 1015.8
20200711142406 66 173 1.0 3.0 0.00 0.00 0.00 72 1015.6
20200711141905 65 244 1.0 2.0 0.00 0.00 0.00 76 1015.6
20200711141405 64 123 1.0 2.0 0.00 0.00 0.00 75 1015.6
20200711140905 63 111 0.0 2.0 0.00 0.00 0.00 78 1015.6
20200711140405 62 272 2.0 2.0 0.00 0.00 0.00 81 1015.6
20200711135904 61 160 0.0 0.0 0.00 0.00 0.00 82 1015.5
20200711135404 59 258 0.0 0.0 0.00 0.00 0.00 83 1015.5
20200711134905 58 121 0.0 0.0 0.00 0.00 0.00 87 1015.4
20200711134405 57 270 0.0 0.0 0.00 0.00 0.00 90 1015.4
20200711133906 56 103 0.0 0.0 0.00 0.00 0.00 90 1015.4
20200711133405 54 79 0.0 0.0 0.00 0.00 0.00 92 1015.4
20200711132905 53 80 0.0 0.0 0.00 0.00 0.00 92 1015.4
20200711132404 53 98 0.0 0.0 0.00 0.00 0.00 92 1015.2
20200711131905 52 87 0.0 0.0 0.00 0.00 0.00 92 1015.2
20200711131405 52 68 0.0 0.0 0.00 0.00 0.00 92 1015.3
20200711130904 52 33 0.0 0.0 0.00 0.00 0.00 92 1015.3
20200711130404 52 65 0.0 0.0 0.00 0.00 0.00 91 1015.3
20200711125904 52 31 0.0 0.0 0.00 0.00 0.00 91 1015.3
20200711125404 52 69 0.0 0.0 0.00 0.00 0.00 91 1015.3
20200711124904 52 90 0.0 0.0 0.00 0.00 0.00 91 1015.1
20200711124405 52 90 0.0 0.0 0.00 0.00 0.00 91 1015.1
20200711123905 52 82 0.0 0.0 0.00 0.00 0.00 91 1015.0
20200711123404 53 41 0.0 0.0 0.00 0.00 0.00 92 1015.0
20200711122904 53 105 0.0 0.0 0.00 0.00 0.00 92 1015.0
20200711122405 52 192 0.0 0.0 0.00 0.00 0.00 91 1015.0
20200711121905 52 45 0.0 0.0 0.00 0.00 0.00 91 1015.0
20200711121405 52 45 0.0 0.0 0.00 0.00 0.00 91 1014.9
20200711120905 52 39 0.0 0.0 0.00 0.00 0.00 91 1014.9
20200711120406 53 45 0.0 0.0 0.00 0.00 0.00 91 1014.9
20200711115905 53 45 0.0 0.0 0.00 0.00 0.00 91 1014.7
20200711115405 53 22 0.0 0.0 0.00 0.00 0.00 91 1014.7
20200711114905 53 22 0.0 0.0 0.00 0.00 0.00 91 1014.6
20200711114406 53 22 0.0 0.0 0.00 0.00 0.00 91 1014.6
20200711113905 53 22 0.0 0.0 0.00 0.00 0.00 91 1014.5
20200711113405 53 22 0.0 0.0 0.00 0.00 0.00 91 1014.5
20200711112905 53 22 0.0 0.0 0.00 0.00 0.00 91 1014.5
20200711112405 53 315 0.0 0.0 0.00 0.00 0.00 90 1014.5
20200711111905 53 0 0.0 0.0 0.00 0.00 0.00 90 1014.5
20200711111405 53 34 0.0 0.0 0.00 0.00 0.00 90 1014.5
20200711110905 53 81 0.0 0.0 0.00 0.00 0.00 90 1014.5
20200711110405 53 90 0.0 0.0 0.00 0.00 0.00 90 1014.5
20200711105905 53 21 0.0 0.0 0.00 0.00 0.00 90 1014.6
20200711105405 53 90 0.0 0.0 0.00 0.00 0.00 89 1014.6
20200711104905 54 31 0.0 0.0 0.00 0.00 0.00 89 1014.6
20200711104406 54 35 0.0 0.0 0.00 0.00 0.00 89 1014.6
20200711103905 54 77 0.0 0.0 0.00 0.00 0.00 89 1014.6
20200711103405 54 90 0.0 0.0 0.00 0.00 0.00 89 1014.7
20200711102905 54 22 0.0 0.0 0.00 0.00 0.00 89 1014.7
20200711102405 54 355 0.0 0.0 0.00 0.00 0.00 89 1014.7
20200711101904 55 333 0.0 0.0 0.00 0.00 0.00 89 1014.7
20200711101405 55 61 0.0 0.0 0.00 0.00 0.00 88 1014.7
20200711100905 55 22 0.0 0.0 0.00 0.00 0.00 88 1014.7
20200711100405 55 71 0.0 0.0 0.00 0.00 0.00 88 1014.7
20200711095905 55 45 0.0 0.0 0.00 0.00 0.00 87 1014.8
20200711095404 55 45 0.0 0.0 0.00 0.00 0.00 87 1014.8
20200711094904 55 90 0.0 0.0 0.00 0.00 0.00 87 1014.8
20200711094404 56 0 0.0 0.0 0.00 0.00 0.00 86 1014.8
20200711093905 56 0 0.0 0.0 0.00 0.00 0.00 86 1014.8
20200711093404 56 338 0.0 0.0 0.00 0.00 0.00 86 1014.9
20200711092904 56 27 0.0 0.0 0.00 0.00 0.00 86 1014.9
20200711092405 56 0 0.0 0.0 0.00 0.00 0.00 86 1014.8
20200711091905 57 327 0.0 0.0 0.00 0.00 0.00 85 1014.8
20200711091405 57 9 0.0 0.0 0.00 0.00 0.00 85 1014.8
20200711090905 57 40 0.0 0.0 0.00 0.00 0.00 85 1014.8
20200711090405 57 180 0.0 1.0 0.00 0.00 0.00 85 1014.8
20200711085904 57 45 0.0 2.0 0.00 0.00 0.00 85 1014.9
20200711085404 58 325 0.0 3.0 0.00 0.00 0.00 85 1014.9
20200711084905 58 22 1.0 3.0 0.00 0.00 0.00 85 1014.8
20200711084405 58 226 2.0 3.0 0.00 0.00 0.00 85 1014.8
20200711083905 58 266 0.0 3.0 0.00 0.00 0.00 85 1014.8
20200711083405 58 219 1.0 3.0 0.00 0.00 0.00 85 1014.8
20200711082905 57 271 2.0 3.0 0.00 0.00 0.00 85 1014.8
20200711082404 57 268 0.0 1.0 0.00 0.00 0.00 84 1014.8
20200711081904 58 125 0.0 1.0 0.00 0.00 0.00 84 1014.8
20200711081404 58 188 1.0 1.0 0.00 0.00 0.00 83 1014.9
20200711080904 58 33 0.0 0.0 0.00 0.00 0.00 83 1014.9
20200711080405 58 202 0.0 0.0 0.00 0.00 0.00 84 1014.9
20200711075905 58 22 0.0 0.0 0.00 0.00 0.00 83 1014.9
20200711075404 58 25 0.0 0.0 0.00 0.00 0.00 84 1014.9
20200711074904 58 17 0.0 0.0 0.00 0.00 0.00 84 1014.9
20200711074405 58 340 0.0 0.0 0.00 0.00 0.00 84 1014.9
20200711073904 58 22 0.0 0.0 0.00 0.00 0.00 83 1015.0
20200711073404 59 0 0.0 0.0 0.00 0.00 0.00 82 1015.0
20200711072904 59 0 0.0 0.0 0.00 0.00 0.00 81 1015.0
20200711072405 59 0 0.0 0.0 0.00 0.00 0.00 79 1015.1
20200711071905 60 68 0.0 0.0 0.00 0.00 0.00 79 1015.1
20200711071404 60 45 0.0 0.0 0.00 0.00 0.00 78 1015.2
20200711070905 60 56 0.0 0.0 0.00 0.00 0.00 79 1015.2
20200711070404 60 45 0.0 0.0 0.00 0.00 0.00 78 1015.2
20200711065905 61 41 0.0 0.0 0.00 0.00 0.00 77 1015.3
20200711065405 61 0 0.0 0.0 0.00 0.00 0.00 77 1015.3
20200711064905 61 0 0.0 0.0 0.00 0.00 0.00 77 1015.2
20200711064404 62 0 0.0 0.0 0.00 0.00 0.00 76 1015.2
20200711063904 62 270 0.0 0.0 0.00 0.00 0.00 75 1015.2
20200711063405 62 13 0.0 0.0 0.00 0.00 0.00 74 1015.2
20200711062904 62 90 0.0 0.0 0.00 0.00 0.00 74 1015.2
20200711062404 63 4 0.0 0.0 0.00 0.00 0.00 74 1015.2
20200711061904 63 342 0.0 0.0 0.00 0.00 0.00 74 1015.2
20200711061404 63 228 0.0 0.0 0.00 0.00 0.00 74 1015.3
20200711060905 63 338 0.0 1.0 0.00 0.00 0.00 73 1015.3
20200711060404 64 341 0.0 2.0 0.00 0.00 0.00 72 1015.3
20200711055904 64 327 1.0 7.0 0.00 0.00 0.00 72 1015.2
20200711055406 64 90 2.0 7.0 0.00 0.00 0.00 73 1015.2
20200711054906 64 309 5.0 7.0 0.00 0.00 0.00 74 1015.2
20200711054405 64 44 2.0 5.0 0.00 0.00 0.00 74 1015.2